Weather Roundup
Issued by NWS

Home | Current Version | Previous Version | Text Only | Print | Product List | Glossary On
Versions: 1 2 3 4 5 6 7 8 9 10 11 12 13 14 15 16 17 18 19 20 21 22 23 24 25 26 27 28 29 30 31 32 33 34 35 36 37 38 39 40 41 42 43 44 45 46 47 48 49 50
000
NZUS93 KARX 061710
HRRWXR

CURRENT HOURLY OBSERVATIONS ACROSS
MUCH OF THE UPPER MISSISSIPPI VALLEY
NATIONAL WEATHER SERVICE LA CROSSE WI
1200 PM CDT WED MAY 06 2015


...SOUTHEAST MINNESOTA...


CITY           SKY/WX    TMP DP  RH WIND       PRES   REMARKS
ROCHESTER      PTSUNNY   66  60  81 SE16      30.04F HAZE
ROCHESTER/MAYO PTSUNNY   63  60  90 E9        30.04F
WINONA         CLOUDY    61  57  88 E10       30.07F
AUSTIN         CLOUDY    64  61  88 SE14      30.00F FOG
ALBERT LEA     CLOUDY    64  63  94 SE17      29.99F FOG
DODGE CENTER   PTSUNNY   66  61  82 SE16      30.02F
PRESTON        PTSUNNY   64  58  81 SE10      30.06F HAZE
OWATONNA       PTSUNNY   66  57  72 SE17G23   30.00F
FARIBAULT      PTSUNNY   66  59  77 E14       30.00F
$$

...ELSEWHERE IN MINNESOTA...


CITY           SKY/WX    TMP DP  RH WIND       PRES   REMARKS
MINNEAPOLIS    CLOUDY    64  58  80 E16       30.01F
INTNL FALLS    CLOUDY    58  52  80 SE12      30.01F
DULUTH         CLOUDY    53  46  77 E13       30.09S
RED WING       PTSUNNY   63  57  82 SE12      30.03F HAZE
REDWOOD FALLS  CLOUDY    68  59  73 E20G26    29.89F
MANKATO        PTSUNNY   70  59  68 E18       29.96F
WORTHINGTON    CLOUDY    72  59  64 SE25      29.86F
FAIRMONT       PTSUNNY   70  36  28 SE22G28   29.91F
$$

...SOUTHWEST WISCONSIN...


CITY           SKY/WX    TMP DP  RH WIND       PRES   REMARKS
LA CROSSE      PTSUNNY   67  58  72 VRB6      30.08F
PRAIRIE DU CHI PTSUNNY   66  58  74 E7        30.09F
BOSCOBEL       MOSUNNY   71  59  65 E6        30.10F
LONE ROCK      CLOUDY    63  57  81 E9        30.13F
PLATTEVILLE    MOSUNNY   66  62  87 SE9       30.12F
FORT MC COY    PTSUNNY   67  56  69 SE5       30.11F
VIROQUA        CLOUDY    63  63  97 SE8       30.10F
WIS DELLS      NOT AVBL
$$

...ELSEWHERE IN WISCONSIN...


CITY           SKY/WX    TMP DP  RH WIND       PRES   REMARKS
MILWAUKEE      PTSUNNY   52  48  86 E8        30.19F
MADISON        PTSUNNY   60  57  89 S6        30.15R FOG
GREEN BAY      PTSUNNY   62  54  74 SE7       30.19F
EAU CLAIRE     LGT RAIN  59  55  87 E8        30.08F
BLACK RVR FLS  PTSUNNY   61  59  91 E5        30.11F
MEDFORD        PTSUNNY   61  55  81 SE9       30.14S
WAUSAU         CLOUDY    60  53  77 E8        30.15F
WIS RAPIDS     MOSUNNY   69  54  58 SE8       30.14F
MARSHFIELD     PTSUNNY   66  53  63 SE9       30.14F
RICE LAKE      CLOUDY    59  53  80 SE12      30.12S
$$

...NORTHEAST IOWA...


CITY           SKY/WX    TMP DP  RH WIND       PRES   REMARKS
DECORAH        PTSUNNY   64  59  82 SE13G18   30.06F
MASON CITY     PTSUNNY   68  62  81 SE18      29.99F HAZE
CHARLES CITY   CLOUDY    66  64  94 SE17G23   30.02F
OELWEIN        PTSUNNY   70  63  78 SE15G22   30.05F
$$

...ELSEWHERE IN IOWA...


CITY           SKY/WX    TMP DP  RH WIND       PRES   REMARKS
DES MOINES     CLOUDY    75  58  55 S24G31    29.95R
IOWA CITY      SUNNY     78  62  57 SE15      30.05F
FORT DODGE     PTSUNNY   73  61  64 SE23      29.92S
$$

...NORTHERN ILLINOIS...


CITY           SKY/WX    TMP DP  RH WIND       PRES   REMARKS
CHICAGO-OHARE  PTSUNNY   69  58  67 VRB6      30.16F HAZE
CHICAGO-MIDWAY FAIR      72  60  66 S6        30.16F HAZE
MOLINE         SUNNY     78  60  53 S15       30.08F
ROCKFORD       PTSUNNY   69  60  73 SE8       30.16F
PEORIA         SUNNY     82  56  40 S9        30.12F
$$

NOTE: "FAIR" INDICATES FEW OR NO CLOUDS BELOW 12,000 FEET WITH NO
SIGNIFICANT WEATHER AND/OR OBSTRUCTIONS TO VISIBILITY. WIND
SPEEDS ARE IN MILES-PER-HOUR.



USA.gov is the U.S. government's official web portal to all federal, state and local government web resources and services.